Location: *
(51.2167°N, 10.0667°E)
Time: 13:04:46
(UTC+00:00)

Cosmos 2242 Rocket - Pass Details

Date: 12 December 2019
Orbit: 617 x 652 km, 82.5° (Epoch: 24 January)

Event Time Altitude Azimuth Distance (km) Brightness Sun altitude
Rises 16:06:42 0° 164° (SSE) 2,957 7.2 -8.1°
Reaches altitude 10° 16:09:04 10° 156° (SSE) 2,055 6.3 -8.4°
Maximum altitude 16:13:13 35° 91° (E) 1,056 4.3 -9.0°
Drops below altitude 10° 16:17:24 10° 26° (NNE) 2,073 5.8 -9.6°
Enters shadow 16:19:01 - 19° (NNE) 2,683 6.4 -9.8°
